Weather History for Tucumcari, NM

Change the Weather History Date:

Thursday, September 12, 2013

  Actual Average Record
Temperature  
Mean Temperature 73 °F -  
Max Temperature 81 °F 87 °F 100 °F (1997)
Min Temperature 66 °F 58 °F 44 °F (1975)
Cooling Degree Days 8    
Growing Degree Days 23 (Base 50)    
Moisture  
Dew Point 64 °F    
Average Humidity 80    
Maximum Humidity 94    
Minimum Humidity 50    
Precipitation  
Precipitation 0.18 in - - ()
Sea Level Pressure  
Sea Level Pressure 30.09 in    
Wind  
Wind Speed 5 mph (ESE)    
Max Wind Speed 15 mph    
Max Gust Speed 16 mph    
Visibility 9 miles    
Events Rain    
Averages and records for this station are not official NWS values.
T = Trace of Precipitation, MM = Missing Value Source: NWS Daily Summary

Daily Weather History Graph

Daily Weather History Graph

Search for Another Location

Airport:

Trip Planner

Search our weather history database for the weather conditions in past years. The results will help you decide how hot, cold, wet, or windy it might be!

Date:

Astronomy

Sep. 12, 2013 Rise Set
Actual Time 6:35 AM MDT 7:05 PM MDT
Civil Twilight 6:09 AM MDT 7:30 PM MDT
Nautical Twilight 5:39 AM MDT 8:00 PM MDT
Astronomical Twilight 5:09 AM MDT 8:31 PM MDT
Moon 1:50 PM MDT (9/12) No Moon Set
Length of Visible Light 13h 20m
Length of Day
12h 30m
Waxing Crescent, 51% of the Moon is Illuminated
Sep 12
Waxing Crescent
Sep 19
Full
Sep 26
Last Quarter
Oct 4
New
Oct 11
First Quarter

Hourly Weather History & Observations

Time (MDT) Temp. Heat Index Dew Point Humidity Pressure Visibility Wind Dir Wind Speed Gust Speed Precip Events Conditions
12:53 AM 68.0 °F - 63.0 °F 84% 30.04 in 10.0 mi Calm Calm - 0.03 in Rain Light Rain
1:53 AM 66.9 °F - 64.0 °F 90% 30.05 in 8.0 mi SSE 4.6 mph - 0.00 in Rain Light Rain
2:11 AM 66.2 °F - 64.4 °F 94% 30.19 in 4.0 mi SE 4.6 mph - 0.03 in Rain Heavy Rain
2:24 AM 66.2 °F - 64.4 °F 94% 30.18 in 10.0 mi South 8.1 mph - 0.03 in Rain Light Rain
2:42 AM 66.2 °F - 62.6 °F 88% 30.18 in 10.0 mi South 9.2 mph - 0.03 in Rain Light Rain
2:53 AM 66.9 °F - 64.0 °F 90% 30.03 in 9.0 mi South 9.2 mph - 0.03 in Rain Light Rain
3:53 AM 66.9 °F - 64.0 °F 90% 30.03 in 8.0 mi SSW 4.6 mph - 0.00 in Rain Light Rain
4:53 AM 66.0 °F - 63.0 °F 90% 30.04 in 5.0 mi SW 3.5 mph - 0.09 in Rain Rain
5:53 AM 66.9 °F - 63.0 °F 87% 30.03 in 8.0 mi Calm Calm - 0.01 in Rain Light Rain
6:39 AM 66.2 °F - 62.6 °F 88% 30.19 in 6.0 mi NE 3.5 mph - 0.00 in Rain Light Rain
6:46 AM 66.2 °F - 64.4 °F 94% 30.19 in 9.0 mi NE 4.6 mph - 0.00 in Rain Light Rain
6:53 AM 66.9 °F - 64.0 °F 90% 30.05 in 9.0 mi NE 5.8 mph - 0.00 in   Overcast
7:02 AM 66.2 °F - 64.4 °F 94% 30.19 in 8.0 mi ENE 4.6 mph - N/A   Overcast
7:53 AM 66.9 °F - 64.0 °F 90% 30.06 in 9.0 mi NE 4.6 mph - N/A   Mostly Cloudy
8:35 AM 68.0 °F - 64.4 °F 88% 30.22 in 9.0 mi ENE 6.9 mph - N/A   Overcast
8:53 AM 68.0 °F - 64.0 °F 87% 30.08 in 9.0 mi East 6.9 mph - N/A   Overcast
9:14 AM 69.8 °F - 64.4 °F 83% 30.22 in 4.0 mi East 5.8 mph - 0.01 in Rain Light Rain
9:24 AM 69.8 °F - 64.4 °F 83% 30.23 in 10.0 mi East 6.9 mph - 0.01 in Rain Light Rain
9:45 AM 69.8 °F - 64.4 °F 83% 30.23 in 8.0 mi East 5.8 mph - 0.02 in Rain Light Rain
9:53 AM 69.1 °F - 64.9 °F 87% 30.09 in 10.0 mi ENE 4.6 mph - 0.02 in   Overcast
10:36 AM 71.6 °F - 64.4 °F 78% 30.23 in 10.0 mi East 5.8 mph - N/A   Overcast
10:53 AM 72.0 °F - 64.9 °F 78% 30.08 in 10.0 mi East 3.5 mph - N/A   Mostly Cloudy
11:02 AM 71.6 °F - 64.4 °F 78% 30.23 in 10.0 mi East 3.5 mph - N/A   Overcast
11:29 AM 73.4 °F - 64.4 °F 73% 30.22 in 10.0 mi Variable 3.5 mph - N/A   Mostly Cloudy
11:53 AM 73.0 °F - 64.0 °F 73% 30.06 in 10.0 mi Calm Calm - N/A   Mostly Cloudy
12:07 PM 73.4 °F - 64.4 °F 73% 30.21 in 10.0 mi Calm Calm - N/A   Overcast
12:39 PM 75.2 °F - 64.4 °F 69% 30.19 in 10.0 mi SE 11.5 mph - N/A   Overcast
12:53 PM 78.1 °F - 64.0 °F 62% 30.01 in 10.0 mi SSE 11.5 mph - N/A   Mostly Cloudy
1:53 PM 78.1 °F - 61.0 °F 56% 30.00 in 10.0 mi SSE 15.0 mph - N/A   Mostly Cloudy
2:53 PM 77.0 °F - 61.0 °F 58% 29.99 in 10.0 mi South 12.7 mph - N/A   Overcast
3:53 PM 78.1 °F - 62.1 °F 58% 29.97 in 10.0 mi South 10.4 mph - N/A   Overcast
4:53 PM 80.1 °F 80.9 °F 60.1 °F 50% 29.95 in 10.0 mi SSE 12.7 mph 16.1 mph N/A   Scattered Clouds
5:53 PM 77.0 °F - 63.0 °F 62% 29.97 in 10.0 mi WSW 5.8 mph - N/A   Scattered Clouds
6:53 PM 73.9 °F - 66.0 °F 76% 29.98 in 10.0 mi WNW 4.6 mph - N/A   Mostly Cloudy
7:53 PM 73.0 °F - 66.0 °F 79% 29.99 in 10.0 mi NNW 5.8 mph - N/A   Overcast
8:53 PM 72.0 °F - 66.0 °F 81% 30.00 in 10.0 mi North 5.8 mph - N/A   Mostly Cloudy
9:53 PM 72.0 °F - 64.9 °F 78% 30.00 in 10.0 mi NNE 5.8 mph - N/A   Overcast
10:53 PM 72.0 °F - 64.9 °F 78% 29.99 in 10.0 mi NNE 5.8 mph - N/A   Overcast
11:53 PM 70.0 °F - 64.0 °F 81% 29.99 in 10.0 mi ENE 5.8 mph - N/A   Mostly Cloudy